QPF
0.03 0.03 0.03 0.02 0.02 0.02 0.02 0.01 0.02 0.02 0.02 0.01 0.01 0.00 0.00 0.01 0.01 0.01 0.01 0.01 0.01 0.01 0.01 0.01 0.01 0.01 0.01 0.01 0.01 0.01 0.01 0.01 0.00 0.00 0.00 0.01 0.00 0.00 0.00 0.00 0.00 0.00 0.00
0.03 0.04 0.06 0.06 0.05 0.04 0.05 0.03 0.02 0.01 0.01 0.00 0.00 0.00 0.00 0.01 0.01 0.01 0.01 0.01 0.01 0.01 0.01 0.01 0.01 0.00 0.00 0.00 0.00 0.00 0.00 0.01 0.00 0.00 0.00 0.00 0.00 0.00 0.00 0.00 0.00 0.00 0.00
0.03 0.03 0.03 0.03 0.03 0.03 0.03 0.02 0.02 0.01 0.01 0.01 0.00 0.01 0.01 0.00 0.01 0.01 0.01 0.01 0.00 0.00 0.00 0.00 0.00 0.00 0.00 0.00 0.00 0.00 0.00 0.00 0.00 0.00 0.00 0.00 0.00 0.00 0.00 0.00 0.00 0.00 0.00
0.02 0.02 0.02 0.03 0.03 0.02 0.02 0.02 0.01 0.01 0.01 0.01 0.01 0.01 0.01 0.01 0.01 0.01 0.00 0.00 0.00 0.00 0.00 0.00 0.00 0.00 0.00 0.00 0.00 0.00 0.00 0.00 0.00 0.00 0.00 0.00 0.00 0.00 0.00 0.00 0.00 0.00 0.00
0.02 0.02 0.02 0.02 0.02 0.01 0.01 0.02 0.02 0.01 0.00 0.00 0.01 0.01 0.00 0.01 0.01 0.01 0.01 0.00 0.00 0.00 0.00 0.00 0.00 0.00 0.00 0.00 0.00 0.00 0.00 0.00 0.00 0.00 0.00 0.00 0.00 0.00 0.00 0.00 0.00 0.00 0.00
0.01 0.00 0.00 0.00 0.00 0.01 0.01 0.01 0.01 0.00 0.00 0.00 0.00 0.00 0.01 0.01 0.01 0.01 0.01 0.01 0.00 0.00 0.00 0.00 0.00 0.00 0.00 0.00 0.00 0.00 0.00 0.00 0.00 0.00 0.00 0.00 0.00 0.00 0.00 0.00 0.00 0.00 0.00
0.01 0.01 0.00 0.00 0.00 0.00 0.00 0.00 0.00 0.00 0.00 0.00 0.00 0.00 0.00 0.01 0.01 0.00 0.00 0.01 0.01 0.00 0.00 0.00 0.01 0.00 0.00 0.00 0.00 0.00 0.00 0.00 0.00 0.00 0.00 0.00 0.00 0.00 0.00 0.00 0.00 0.00 0.00
0.01 0.01 0.01 0.00 0.00 0.00 0.00 0.00 0.00 0.00 0.00 0.00 0.00 0.00 0.00 0.01 0.00 0.00 0.00 0.00 0.00 0.00 0.00 0.01 0.01 0.01 0.01 0.01 0.01 0.01 0.01 0.02 0.02 0.01 0.01 0.00 0.00 0.00 0.00 0.00 0.00 0.00 0.00
0.01 0.02 0.01 0.00 0.00 0.00 0.00 0.00 0.00 0.00 0.00 0.01 0.01 0.01 0.01 0.00 0.01 0.01 0.01 0.00 0.00 0.00 0.01 0.01 0.01 0.01 0.01 0.02 0.02 0.02 0.02 0.03 0.03 0.03 0.02 0.01 0.01 0.00 0.00 0.00 0.00 0.01 0.01
0.01 0.02 0.01 0.00 0.00 0.00 0.01 0.01 0.01 0.01 0.00 0.00 0.00 0.00 0.00 0.01 0.01 0.01 0.01 0.01 0.01 0.01 0.01 0.01 0.00 0.01 0.01 0.01 0.01 0.01 0.01 0.02 0.02 0.03 0.03 0.02 0.01 0.01 0.01 0.01 0.01 0.01 0.01
0.02 0.02 0.01 0.01 0.01 0.01 0.01 0.01 0.01 0.01 0.01 0.01 0.01 0.01 0.01 0.01 0.01 0.02 0.02 0.01 0.01 0.01 0.01 0.01 0.01 0.01 0.01 0.02 0.01 0.01 0.01 0.01 0.01 0.01 0.02 0.02 0.02 0.02 0.01 0.01 0.01 0.01 0.02
0.02 0.02 0.02 0.01 0.01 0.01 0.01 0.01 0.01 0.01 0.01 0.01 0.01 0.01 0.01 0.01 0.02 0.02 0.02 0.01 0.01 0.01 0.01 0.01 0.01 0.01 0.01 0.01 0.01 0.01 0.01 0.01 0.01 0.01 0.01 0.01 0.01 0.02 0.02 0.02 0.02 0.02 0.02
0.02 0.02 0.02 0.02 0.01 0.01 0.01 0.01 0.01 0.01 0.01 0.01 0.01 0.01 0.01 0.00 0.01 0.01 0.01 0.01 0.01 0.01 0.01 0.01 0.01 0.01 0.01 0.01 0.01 0.01 0.01 0.01 0.01 0.01 0.01 0.00 0.01 0.01 0.01 0.02 0.02 0.02 0.02
0.03 0.03 0.03 0.02 0.01 0.01 0.01 0.01 0.01 0.01 0.01 0.01 0.01 0.01 0.01 0.01 0.00 0.01 0.01 0.00 0.00 0.00 0.00 0.01 0.01 0.02 0.02 0.03 0.03 0.02 0.02 0.01 0.01 0.01 0.01 0.01 0.01 0.01 0.01 0.01 0.01 0.01 0.01
0.02 0.03 0.03 0.02 0.02 0.01 0.01 0.01 0.01 0.01 0.01 0.01 0.01 0.01 0.01 0.01 0.01 0.01 0.01 0.00 0.00 0.00 0.00 0.00 0.00 0.00 0.01 0.01 0.02 0.02 0.02 0.02 0.01 0.01 0.01 0.01 0.01 0.01 0.01 0.01 0.01 0.01 0.00
0.02 0.02 0.02 0.02 0.02 0.02 0.02 0.01 0.01 0.01 0.01 0.01 0.01 0.01 0.01 0.01 0.01 0.01 0.01 0.02 0.02 0.02 0.01 0.01 0.01 0.01 0.01 0.00 0.01 0.01 0.01 0.01 0.01 0.01 0.01 0.01 0.00 0.00 0.00 0.00 0.00 0.00 0.00
0.02 0.02 0.02 0.02 0.02 0.02 0.02 0.01 0.01 0.00 0.00 0.00 0.00 0.00 0.00 0.00 0.00 0.01 0.01 0.01 0.02 0.03 0.02 0.02 0.02 0.02 0.02 0.01 0.01 0.01 0.01 0.01 0.01 0.01 0.01 0.01 0.01 0.01 0.01 0.01 0.00 0.00 0.01
0.01 0.01 0.01 0.02 0.02 0.02 0.02 0.02 0.02 0.01 0.00 0.00 0.00 0.00 0.00 0.00 0.00 0.00 0.00 0.00 0.01 0.01 0.01 0.02 0.02 0.02 0.02 0.02 0.01 0.01 0.01 0.01 0.00 0.00 0.00 0.01 0.01 0.01 0.01 0.01 0.01 0.01 0.01
0.01 0.01 0.01 0.02 0.02 0.02 0.02 0.03 0.03 0.03 0.02 0.01 0.01 0.00 0.00 0.00 0.00 0.00 0.00 0.00 0.01 0.01 0.01 0.01 0.01 0.01 0.02 0.02 0.02 0.01 0.01 0.00 0.00 0.00 0.01 0.01 0.01 0.01 0.02 0.02 0.01 0.01 0.01
0.01 0.02 0.02 0.01 0.01 0.02 0.02 0.03 0.04 0.05 0.05 0.04 0.03 0.02 0.02 0.01 0.01 0.00 0.00 0.00 0.01 0.01 0.01 0.01 0.01 0.01 0.01 0.02 0.02 0.02 0.02 0.01 0.01 0.01 0.01 0.01 0.01 0.01 0.02 0.02 0.02 0.02 0.02
0.01 0.01 0.01 0.01 0.01 0.01 0.02 0.02 0.02 0.03 0.04 0.04 0.03 0.02 0.01 0.01 0.00 0.00 0.00 0.00 0.00 0.01 0.01 0.01 0.01 0.01 0.01 0.01 0.02 0.02 0.02 0.02 0.01 0.01 0.02 0.02 0.02 0.02 0.02 0.02 0.02 0.03 0.03
0.01 0.01 0.01 0.01 0.01 0.01 0.01 0.01 0.02 0.02 0.02 0.01 0.01 0.01 0.00 0.00 0.00 0.00 0.00 0.00 0.00 0.01 0.01 0.02 0.02 0.02 0.02 0.02 0.02 0.02 0.03 0.03 0.02 0.02 0.02 0.02 0.02 0.02 0.02 0.02 0.02 0.03 0.03
0.01 0.01 0.00 0.00 0.00 0.01 0.00 0.01 0.01 0.01 0.01 0.01 0.00 0.00 0.00 0.00 0.00 0.01 0.01 0.01 0.01 0.01 0.01 0.02 0.03 0.03 0.04 0.04 0.04 0.03 0.03 0.03 0.02 0.02 0.02 0.02 0.02 0.02 0.02 0.01 0.01 0.02 0.03
0.01 0.00 0.00 0.00 0.00 0.00 0.00 0.00 0.00 0.00 0.00 0.01 0.01 0.00 0.00 0.00 0.01 0.01 0.01 0.01 0.01 0.02 0.02 0.02 0.03 0.03 0.04 0.04 0.03 0.03 0.02 0.02 0.02 0.02 0.02 0.02 0.01 0.01 0.01 0.01 0.01 0.01 0.02
0.00 0.00 0.00 0.00 0.00 0.00 0.00 0.00 0.00 0.00 0.00 0.00 0.00 0.01 0.01 0.01 0.01 0.01 0.01 0.01 0.01 0.02 0.02 0.02 0.02 0.02 0.03 0.03 0.03 0.03 0.03 0.03 0.02 0.02 0.02 0.01 0.01 0.01 0.01 0.01 0.01 0.01 0.02
0.01 0.00 0.00 0.00 0.00 0.00 0.00 0.00 0.00 0.00 0.01 0.01 0.01 0.01 0.01 0.01 0.02 0.02 0.03 0.03 0.02 0.02 0.02 0.02 0.02 0.02 0.02 0.03 0.03 0.03 0.03 0.03 0.03 0.02 0.01 0.01 0.01 0.01 0.01 0.01 0.01 0.01 0.01
MSLP
1027.03 1027.17 1027.39 1027.65 1027.92 1028.14 1028.31 1028.38 1028.38 1028.29 1028.15 1027.96 1027.76 1027.57 1027.40 1027.27 1027.18 1027.13 1027.13 1027.17 1027.23 1027.31 1027.38 1027.43 1027.45 1027.42 1027.34 1027.21 1027.03 1026.81 1026.56 1026.27 1025.95 1025.60 1025.21 1024.77 1024.29 1023.75 1023.17 1022.56 1021.93 1021.32 1020.73
1027.86 1028.02 1028.23 1028.48 1028.73 1028.95 1029.11 1029.20 1029.22 1029.16 1029.04 1028.88 1028.70 1028.54 1028.39 1028.27 1028.19 1028.15 1028.14 1028.16 1028.19 1028.23 1028.25 1028.24 1028.20 1028.12 1028.00 1027.84 1027.65 1027.44 1027.21 1026.95 1026.67 1026.34 1025.97 1025.54 1025.03 1024.46 1023.83 1023.16 1022.48 1021.80 1021.16
1028.68 1028.84 1029.05 1029.28 1029.50 1029.70 1029.85 1029.93 1029.95 1029.91 1029.81 1029.69 1029.54 1029.40 1029.28 1029.18 1029.12 1029.08 1029.08 1029.08 1029.09 1029.09 1029.06 1028.99 1028.89 1028.75 1028.57 1028.38 1028.16 1027.94 1027.71 1027.48 1027.21 1026.91 1026.56 1026.12 1025.61 1025.03 1024.38 1023.68 1022.97 1022.27 1021.60
1029.41 1029.59 1029.79 1029.99 1030.18 1030.34 1030.46 1030.54 1030.55 1030.52 1030.45 1030.35 1030.24 1030.14 1030.04 1029.97 1029.92 1029.90 1029.89 1029.89 1029.87 1029.83 1029.75 1029.63 1029.47 1029.27 1029.03 1028.79 1028.53 1028.29 1028.04 1027.80 1027.54 1027.25 1026.91 1026.49 1025.99 1025.42 1024.77 1024.08 1023.36 1022.66 1021.99
1030.02 1030.21 1030.40 1030.57 1030.73 1030.86 1030.95 1031.01 1031.03 1031.01 1030.96 1030.89 1030.81 1030.74 1030.67 1030.62 1030.58 1030.56 1030.55 1030.53 1030.49 1030.42 1030.30 1030.12 1029.91 1029.64 1029.35 1029.05 1028.74 1028.45 1028.18 1027.91 1027.64 1027.35 1027.02 1026.62 1026.15 1025.60 1024.99 1024.33 1023.65 1022.97 1022.32
1030.46 1030.68 1030.86 1031.02 1031.15 1031.25 1031.32 1031.37 1031.40 1031.40 1031.38 1031.34 1031.29 1031.24 1031.19 1031.16 1031.12 1031.09 1031.06 1031.02 1030.95 1030.84 1030.68 1030.46 1030.19 1029.88 1029.53 1029.17 1028.81 1028.47 1028.15 1027.84 1027.55 1027.25 1026.92 1026.55 1026.11 1025.61 1025.05 1024.44 1023.82 1023.18 1022.57
1030.75 1030.99 1031.18 1031.32 1031.44 1031.53 1031.60 1031.66 1031.70 1031.73 1031.74 1031.74 1031.72 1031.69 1031.66 1031.61 1031.56 1031.52 1031.45 1031.38 1031.27 1031.12 1030.93 1030.67 1030.36 1030.00 1029.61 1029.19 1028.78 1028.38 1028.01 1027.67 1027.34 1027.03 1026.70 1026.34 1025.94 1025.49 1025.00 1024.46 1023.89 1023.32 1022.74
1030.90 1031.16 1031.36 1031.52 1031.65 1031.74 1031.83 1031.92 1031.99 1032.06 1032.11 1032.15 1032.15 1032.13 1032.09 1032.03 1031.96 1031.87 1031.77 1031.65 1031.49 1031.31 1031.08 1030.79 1030.45 1030.06 1029.63 1029.18 1028.72 1028.28 1027.86 1027.47 1027.11 1026.78 1026.44 1026.10 1025.74 1025.33 1024.89 1024.42 1023.91 1023.39 1022.85
1030.95 1031.24 1031.47 1031.65 1031.80 1031.93 1032.05 1032.17 1032.29 1032.41 1032.50 1032.56 1032.59 1032.58 1032.53 1032.44 1032.32 1032.19 1032.03 1031.86 1031.67 1031.44 1031.18 1030.87 1030.51 1030.10 1029.66 1029.19 1028.70 1028.23 1027.77 1027.35 1026.96 1026.59 1026.25 1025.91 1025.56 1025.18 1024.78 1024.35 1023.89 1023.40 1022.90
1030.96 1031.28 1031.54 1031.74 1031.92 1032.09 1032.26 1032.43 1032.60 1032.76 1032.89 1032.99 1033.03 1033.01 1032.94 1032.82 1032.66 1032.47 1032.27 1032.05 1031.81 1031.56 1031.27 1030.95 1030.59 1030.19 1029.74 1029.27 1028.78 1028.28 1027.81 1027.35 1026.93 1026.53 1026.16 1025.80 1025.44 1025.07 1024.67 1024.26 1023.81 1023.35 1022.86
1030.95 1031.30 1031.58 1031.82 1032.03 1032.24 1032.45 1032.67 1032.88 1033.08 1033.25 1033.36 1033.41 1033.39 1033.30 1033.14 1032.94 1032.71 1032.45 1032.19 1031.93 1031.66 1031.37 1031.05 1030.71 1030.32 1029.90 1029.43 1028.95 1028.45 1027.95 1027.47 1027.02 1026.58 1026.17 1025.77 1025.37 1024.96 1024.55 1024.11 1023.66 1023.19 1022.69
1030.94 1031.31 1031.61 1031.87 1032.11 1032.35 1032.59 1032.85 1033.09 1033.32 1033.51 1033.64 1033.68 1033.65 1033.54 1033.35 1033.12 1032.86 1032.57 1032.29 1032.01 1031.73 1031.45 1031.16 1030.84 1030.48 1030.08 1029.65 1029.18 1028.68 1028.18 1027.67 1027.17 1026.69 1026.21 1025.75 1025.29 1024.83 1024.36 1023.88 1023.39 1022.88 1022.36
1030.90 1031.28 1031.59 1031.87 1032.14 1032.40 1032.66 1032.93 1033.20 1033.44 1033.63 1033.75 1033.79 1033.75 1033.62 1033.42 1033.17 1032.89 1032.60 1032.31 1032.04 1031.78 1031.52 1031.25 1030.96 1030.64 1030.27 1029.86 1029.40 1028.91 1028.39 1027.85 1027.31 1026.77 1026.22 1025.69 1025.15 1024.60 1024.06 1023.51 1022.95 1022.40 1021.84
1030.81 1031.19 1031.52 1031.81 1032.08 1032.35 1032.63 1032.91 1033.17 1033.40 1033.58 1033.69 1033.72 1033.66 1033.53 1033.32 1033.07 1032.80 1032.52 1032.25 1032.00 1031.76 1031.53 1031.30 1031.04 1030.74 1030.41 1030.01 1029.56 1029.06 1028.52 1027.95 1027.35 1026.74 1026.13 1025.51 1024.88 1024.25 1023.61 1022.98 1022.35 1021.74 1021.14
1030.63 1031.02 1031.35 1031.66 1031.94 1032.22 1032.50 1032.76 1033.01 1033.22 1033.38 1033.47 1033.48 1033.42 1033.28 1033.09 1032.86 1032.61 1032.36 1032.12 1031.90 1031.70 1031.50 1031.29 1031.06 1030.78 1030.45 1030.06 1029.59 1029.08 1028.51 1027.90 1027.25 1026.57 1025.88 1025.18 1024.47 1023.75 1023.03 1022.33 1021.63 1020.95 1020.30
1030.36 1030.76 1031.11 1031.43 1031.73 1032.02 1032.29 1032.55 1032.77 1032.96 1033.09 1033.16 1033.15 1033.08 1032.95 1032.78 1032.57 1032.36 1032.16 1031.96 1031.78 1031.61 1031.44 1031.24 1031.02 1030.74 1030.40 1029.98 1029.50 1028.95 1028.34 1027.68 1026.98 1026.25 1025.49 1024.72 1023.94 1023.15 1022.37 1021.59 1020.83 1020.10 1019.40
1030.01 1030.43 1030.81 1031.17 1031.49 1031.79 1032.06 1032.31 1032.51 1032.67 1032.77 1032.82 1032.80 1032.73 1032.61 1032.46 1032.30 1032.13 1031.96 1031.81 1031.67 1031.53 1031.37 1031.18 1030.94 1030.64 1030.27 1029.82 1029.30 1028.70 1028.05 1027.34 1026.59 1025.81 1025.01 1024.18 1023.35 1022.52 1021.68 1020.85 1020.05 1019.27 1018.52
1029.61 1030.07 1030.49 1030.89 1031.24 1031.56 1031.84 1032.08 1032.27 1032.41 1032.49 1032.52 1032.49 1032.42 1032.32 1032.20 1032.07 1031.94 1031.82 1031.71 1031.60 1031.47 1031.31 1031.11 1030.85 1030.52 1030.11 1029.61 1029.03 1028.39 1027.68 1026.92 1026.13 1025.31 1024.48 1023.63 1022.77 1021.90 1021.04 1020.18 1019.34 1018.51 1017.72
1029.22 1029.72 1030.19 1030.63 1031.02 1031.37 1031.66 1031.90 1032.08 1032.21 1032.27 1032.29 1032.25 1032.19 1032.10 1032.01 1031.92 1031.83 1031.75 1031.67 1031.57 1031.45 1031.29 1031.06 1030.77 1030.39 1029.92 1029.37 1028.73 1028.04 1027.28 1026.49 1025.66 1024.82 1023.97 1023.10 1022.23 1021.35 1020.47 1019.60 1018.72 1017.87 1017.03
1028.85 1029.40 1029.92 1030.39 1030.82 1031.19 1031.50 1031.75 1031.93 1032.04 1032.10 1032.11 1032.07 1032.02 1031.95 1031.88 1031.82 1031.76 1031.70 1031.64 1031.56 1031.43 1031.26 1031.00 1030.67 1030.24 1029.72 1029.11 1028.43 1027.68 1026.88 1026.06 1025.21 1024.35 1023.48 1022.62 1021.75 1020.87 1019.99 1019.10 1018.21 1017.32 1016.44
1028.53 1029.11 1029.65 1030.16 1030.61 1031.00 1031.32 1031.57 1031.75 1031.86 1031.92 1031.93 1031.90 1031.85 1031.80 1031.76 1031.71 1031.68 1031.64 1031.59 1031.51 1031.38 1031.18 1030.90 1030.52 1030.05 1029.48 1028.83 1028.10 1027.31 1026.48 1025.63 1024.77 1023.90 1023.03 1022.17 1021.30 1020.43 1019.54 1018.65 1017.74 1016.82 1015.91
1028.23 1028.81 1029.37 1029.88 1030.34 1030.74 1031.06 1031.31 1031.49 1031.60 1031.66 1031.68 1031.66 1031.63 1031.59 1031.56 1031.54 1031.52 1031.49 1031.45 1031.36 1031.21 1031.00 1030.69 1030.28 1029.78 1029.18 1028.49 1027.72 1026.91 1026.06 1025.19 1024.32 1023.44 1022.58 1021.71 1020.85 1019.98 1019.10 1018.20 1017.28 1016.34 1015.39
1027.90 1028.47 1029.01 1029.50 1029.95 1030.33 1030.65 1030.90 1031.08 1031.19 1031.26 1031.29 1031.29 1031.28 1031.27 1031.25 1031.24 1031.23 1031.21 1031.17 1031.07 1030.92 1030.68 1030.35 1029.92 1029.40 1028.78 1028.06 1027.29 1026.46 1025.60 1024.72 1023.84 1022.96 1022.09 1021.23 1020.37 1019.50 1018.62 1017.72 1016.79 1015.85 1014.88
1027.49 1028.02 1028.51 1028.98 1029.39 1029.75 1030.06 1030.30 1030.48 1030.61 1030.70 1030.75 1030.77 1030.79 1030.80 1030.80 1030.81 1030.81 1030.79 1030.73 1030.63 1030.46 1030.21 1029.87 1029.44 1028.90 1028.27 1027.56 1026.78 1025.95 1025.08 1024.21 1023.32 1022.44 1021.57 1020.71 1019.85 1018.98 1018.10 1017.21 1016.29 1015.35 1014.40
1026.96 1027.43 1027.87 1028.29 1028.67 1029.00 1029.29 1029.53 1029.72 1029.87 1029.98 1030.06 1030.12 1030.17 1030.20 1030.23 1030.25 1030.26 1030.23 1030.18 1030.07 1029.89 1029.63 1029.29 1028.85 1028.31 1027.69 1026.99 1026.22 1025.40 1024.55 1023.67 1022.79 1021.92 1021.05 1020.18 1019.33 1018.47 1017.60 1016.72 1015.83 1014.91 1013.99
1026.30 1026.70 1027.09 1027.46 1027.80 1028.11 1028.39 1028.64 1028.84 1029.02 1029.17 1029.29 1029.39 1029.47 1029.54 1029.59 1029.63 1029.64 1029.62 1029.56 1029.44 1029.25 1028.99 1028.65 1028.21 1027.69 1027.09 1026.41 1025.66 1024.86 1024.03 1023.17 1022.30 1021.43 1020.57 1019.71 1018.86 1018.01 1017.17 1016.32 1015.46 1014.59 1013.72
Thickness
5709 5708 5707 5705 5704 5704 5702 5700 5699 5698 5696 5694 5692 5690 5688 5686 5684 5682 5679 5678 5675 5673 5671 5669 5667 5666 5664 5663 5661 5659 5656 5652 5647 5646 5646 5646 5645 5644 5643 5643 5642 5642 5641
5707 5705 5703 5702 5701 5699 5698 5697 5696 5694 5692 5691 5689 5686 5684 5682 5680 5678 5675 5673 5671 5668 5666 5664 5662 5662 5659 5657 5656 5654 5651 5648 5645 5641 5640 5640 5640 5639 5638 5637 5636 5635 5635
5703 5701 5699 5697 5696 5695 5694 5693 5692 5690 5688 5686 5685 5682 5680 5678 5676 5674 5672 5669 5667 5665 5663 5660 5658 5656 5654 5652 5650 5648 5646 5644 5640 5637 5634 5634 5633 5633 5631 5631 5630 5629 5629
5700 5697 5695 5693 5692 5691 5690 5689 5687 5686 5684 5682 5680 5678 5676 5674 5672 5669 5667 5664 5662 5660 5658 5657 5655 5652 5650 5648 5646 5643 5641 5637 5634 5630 5628 5626 5625 5625 5623 5622 5621 5621 5621
5696 5693 5691 5691 5689 5688 5686 5684 5683 5681 5679 5677 5675 5673 5671 5670 5668 5665 5662 5660 5657 5654 5653 5652 5650 5649 5647 5645 5642 5638 5635 5631 5627 5624 5621 5619 5617 5616 5615 5614 5613 5612 5613
5693 5690 5689 5687 5685 5683 5681 5679 5677 5675 5673 5671 5669 5667 5665 5665 5663 5661 5658 5655 5652 5649 5647 5645 5644 5643 5642 5640 5638 5635 5632 5627 5622 5618 5615 5612 5611 5610 5609 5608 5605 5603 5602
5689 5687 5685 5683 5680 5678 5677 5673 5671 5669 5667 5665 5663 5662 5660 5659 5658 5656 5653 5649 5646 5643 5641 5639 5638 5637 5635 5633 5630 5628 5625 5623 5620 5616 5611 5608 5606 5605 5603 5600 5597 5595 5594
5685 5683 5681 5679 5676 5674 5671 5668 5666 5665 5662 5660 5658 5656 5654 5653 5653 5650 5648 5644 5640 5637 5635 5633 5631 5629 5628 5626 5622 5619 5616 5614 5613 5610 5607 5604 5602 5599 5597 5594 5591 5588 5586
5682 5680 5678 5676 5672 5669 5666 5663 5662 5659 5657 5655 5653 5651 5649 5647 5647 5645 5642 5638 5634 5631 5629 5627 5625 5623 5622 5619 5615 5611 5608 5606 5604 5601 5599 5596 5594 5592 5589 5585 5581 5578 5575
5680 5678 5676 5673 5669 5665 5662 5659 5657 5654 5651 5649 5647 5645 5643 5641 5641 5639 5637 5632 5628 5625 5622 5620 5619 5617 5615 5612 5607 5603 5599 5596 5594 5592 5589 5587 5584 5582 5579 5576 5572 5567 5564
5677 5674 5671 5669 5665 5662 5658 5654 5651 5648 5644 5642 5639 5638 5636 5636 5634 5633 5630 5626 5622 5618 5615 5612 5611 5609 5607 5604 5600 5596 5592 5589 5586 5582 5579 5576 5574 5571 5569 5566 5563 5559 5555
5673 5669 5666 5663 5661 5657 5652 5648 5645 5641 5637 5633 5631 5629 5628 5627 5626 5625 5622 5619 5616 5611 5608 5605 5603 5601 5598 5595 5591 5588 5584 5580 5576 5572 5569 5566 5563 5561 5558 5556 5553 5550 5547
5667 5663 5661 5658 5655 5651 5647 5642 5638 5634 5630 5626 5624 5621 5619 5619 5618 5617 5614 5612 5608 5604 5601 5598 5595 5592 5588 5585 5581 5578 5574 5569 5565 5561 5558 5556 5553 5551 5549 5546 5542 5539 5536
5661 5658 5655 5651 5647 5644 5640 5637 5632 5628 5624 5620 5617 5615 5612 5610 5609 5607 5604 5602 5599 5595 5592 5589 5586 5582 5578 5575 5571 5567 5563 5560 5556 5552 5548 5546 5543 5541 5538 5535 5531 5527 5524
5654 5651 5647 5644 5640 5636 5632 5629 5627 5624 5621 5617 5613 5610 5606 5603 5603 5601 5597 5594 5590 5587 5582 5578 5574 5569 5565 5562 5558 5555 5552 5548 5545 5541 5538 5535 5533 5530 5527 5524 5520 5517 5512
5646 5643 5640 5637 5632 5628 5624 5621 5619 5617 5615 5612 5610 5606 5603 5601 5598 5594 5590 5587 5583 5578 5573 5567 5563 5559 5555 5552 5548 5544 5541 5537 5534 5531 5528 5525 5522 5519 5516 5514 5510 5506 5502
5640 5637 5633 5630 5625 5621 5617 5614 5610 5607 5606 5604 5601 5599 5596 5593 5590 5586 5582 5578 5573 5569 5562 5558 5554 5550 5546 5542 5538 5535 5531 5528 5524 5521 5517 5514 5511 5508 5506 5502 5499 5495 5491
5632 5629 5626 5622 5619 5614 5610 5607 5603 5600 5596 5593 5592 5590 5587 5585 5581 5577 5573 5568 5562 5558 5554 5549 5545 5541 5537 5533 5530 5526 5522 5518 5514 5510 5507 5504 5500 5497 5494 5491 5488 5484 5481
5623 5620 5617 5614 5611 5607 5603 5599 5595 5592 5588 5585 5582 5579 5577 5574 5571 5567 5563 5558 5554 5550 5546 5541 5537 5533 5529 5526 5522 5518 5514 5509 5505 5501 5497 5494 5490 5486 5483 5480 5477 5474 5470
5614 5612 5609 5605 5602 5598 5594 5590 5586 5583 5580 5577 5574 5571 5567 5563 5559 5556 5553 5549 5546 5542 5538 5534 5530 5526 5522 5518 5514 5510 5505 5501 5496 5492 5488 5484 5481 5477 5473 5470 5466 5463 5459
5604 5602 5600 5596 5592 5589 5586 5582 5578 5575 5571 5569 5566 5563 5560 5556 5552 5548 5544 5541 5537 5534 5530 5526 5522 5518 5514 5510 5506 5502 5498 5493 5489 5484 5480 5476 5472 5468 5464 5460 5457 5453 5450
5595 5592 5589 5587 5584 5580 5577 5574 5570 5566 5563 5560 5557 5553 5551 5547 5543 5539 5536 5532 5529 5526 5523 5519 5515 5511 5507 5503 5498 5494 5490 5485 5481 5476 5472 5468 5464 5460 5456 5452 5448 5444 5440
5585 5582 5580 5577 5575 5572 5568 5565 5561 5558 5554 5551 5548 5545 5541 5537 5535 5532 5528 5525 5521 5518 5515 5511 5507 5503 5499 5495 5491 5486 5482 5477 5473 5469 5465 5460 5456 5452 5448 5443 5440 5436 5432
5577 5573 5571 5568 5565 5562 5558 5556 5553 5550 5546 5543 5540 5537 5533 5530 5527 5524 5521 5517 5514 5511 5507 5503 5499 5496 5492 5487 5483 5478 5474 5470 5466 5462 5458 5453 5449 5444 5440 5436 5432 5428 5424
5567 5564 5562 5559 5556 5553 5550 5547 5544 5541 5538 5535 5533 5529 5526 5522 5519 5517 5513 5509 5506 5503 5500 5496 5492 5489 5485 5481 5476 5472 5468 5463 5459 5455 5450 5446 5441 5437 5432 5428 5424 5420 5417
5559 5556 5553 5551 5548 5545 5542 5539 5536 5533 5530 5527 5524 5521 5518 5515 5512 5509 5506 5502 5499 5496 5492 5489 5485 5482 5478 5474 5469 5465 5461 5456 5452 5447 5443 5438 5434 5430 5425 5421 5417 5414 5410